SCP
0 0 0 0 0 0 0 0 0 0 0 0 0 0 0 0 0 0 0 0 0 0 0 0 0 0 0 0 0 0 0 0 0 0 0 0 0 0 0 0 0 0 0 0
0 0 0 0 0 0 0 0 0 0 0 0 0 0 0 0 0 0 0 0 0 0 0 0 0 0 0 0 0 0 0 0 0 0 0 0 0 0 0 0 0 0 0 0
0 0 0 0 0 0 0 0 0 0 0 0 0 0 0 0 0 0 0 0 0 0 0 0 0 0 0 0 0 0 0 0 0 0 0 0 0 0 0 0 0 0 0 0
0 0 0 0 0 0 0 0 0 0 0 0 0 0 0 0 0 0 0 0 0 0 0 0 0 0 0 0 0 0 0 0 0 0 0 0 0 0 0 0 0 0 0 0
0 0 0 0 0 0 0 0 0 0 0 0 0 0 0 0 0 0 0 0 0 0 0 0 0 0 0 0 0 0 0 0 0 0 0 0 0 0 0 0 0 0 0 0
0 0 0 0 0 0 0 0 0 0 0 0 0 0 0 0 0 0 0 0 0 0 0 0 0 0 0 0 0 0 0 0 0 0 0 0 0 0 0 0 0 0 0 0
0 0 0 0 0 0 0 0 0 0 0 0 0 0 0 0 0 0 0 0 0 0 0 0 0 0 0 0 0 0 0 0 0 0 0 0 0 0 0 0 0 0 0 0
0 0 0 0 0 0 0 0 0 0 0 0 0 0 0 0 0 0 0 0 0 0 0 0 0 0 0 0 0 0 0 0 0 0 0 0 0 0 0 0 0 0 0 0
0 0 0 0 0 0 0 0 0 0 0 0 0 0 0 0 0 0 0 0 0 0 0 0 0 0 0 0 0 0 0 0 0 0 0 0 0 0 0 0 0 0 0 0
0 0 0 0 0 0 0 0 0 0 0 0 0 0 0 0 0 0 0 0 0 0 0 0 0 0 0 0 0 0 0 0 0 0 0 0 0 0 0 0 0 0 0 0
0 0 0 0 0 0 0 0 0 0 0 0 0 0 0 0 0 0 0 0 0 0 0 0 0 0 0 0 0 0 0 0 0 0 0 0 0 0 0 0 0 0 0 0
0 0 0 0 0 0 0 0 0 0 0 0 0 0 0 0 0 0 0 0 0 0 0 0 0 0 0 0 0 0 0 0 0 0 0 0 0 0 0 0 0 0 0 0
0 0 0 0 0 0 0 0 0 0 0 0 0 0 0 0 0 0 0 0 0 0 0 0 0 0 0 0 0 0 0 0 0 0 0 0 0 0 0 0 0 0 0 0
0 0 0 0 0 0 0 0 0 0 0 0 0 0 0 0 0 0 0 0 0 0 0 0 0 0 0 0 0 0 0 0 0 0 0 0 0 0 0 0 0 0 0 0
0 0 0 0 0 0 0 0 0 0 0 0 0 0 0 0 0 0 0 0 0 0 0 0 0 0 0 0 0 0 0 0 0 0 0 0 0 0 0 0 0 0 0 0
0 0 0 0 0 0 0 0 0 0 0 0 0 0 0 0 0 0 0 0 0 0 0 0 0 0 0 0 0 0 0 0 0 0 0 0 0 0 0 0 0 0 0 0
0 0 0 0 0 0 0 0 0 0 0 0 0 0 0 0 0 0 0 0 0 0 0 0 0 0 0 0 0 0 0 0 0 0 0 0 0 0 0 0 0 0 0 0
0 0 0 0 0 0 0 0 0 0 0 0 0 0 0 0 0 0 0 0 0 0 0 0 0 0 0 0 0 0 0 0 0 0 0 0 0 0 0 0 0 0 0 0
0 0 0 0 0 0 0 0 0 0 0 0 0 0 0 0 0 0 0 0 0 0 0 0 0 0 0 0 0 0 0 0 0 0 0 0 0 0 0 0 0 0 0 0
0 0 0 0 0 0 0 0 0 0 0 0 0 0 0 0 0 0 0 0 0 0 0 0 0 0 0 0 0 0 0 0 0 0 0 0 0 0 0 0 0 0 0 0
0 0 0 0 0 0 0 0 0 0 0 0 0 0 0 0 0 0 0 0 0 0 0 0 0 0 0 0 0 0 0 0 0 0 0 0 0 0 0 0 0 0 0 0
0 0 0 0 0 0 0 0 0 0 0 0 0 0 0 0 0 0 0 0 0 0 0 0 0 0 0 0 0 0 0 0 0 0 0 0 0 0 0 0 0 0 0 0
0 0 0 0 0 0 0 0 0 0 0 0 0 0 0 0 0 0 0 0 0 0 0 0 0 0 0 0 0 0 0 0 0 0 0 0 0 0 0 0 0 0 0 0
0 0 0 0 0 0 0 0 0 0 0 0 0 0 0 0 0 0 0 0 0 0 0 0 0 0 0 0 0 0 0 0 0 0 0 0 0 0 0 0 0 0 0 0
0 0 0 0 0 0 0 0 0 0 0 0 0 0 0 0 0 0 0 0 0 0 0 0 0 0 0 0 0 0 0 0 0 0 0 0 0 0 0 0 0 0 0 0
0 0 0 0 0 0 0 0 0 0 0 0 0 0 0 0 0 0 0 0 0 0 0 0 0 0 0 0 0 0 0 0 0 0 0 0 0 0 0 0 0 0 0 0
0 0 0 0 0 0 0 0 0 0 0 0 0 0 0 0 0 0 0 0 0 0 0 0 0 0 0 0 0 0 0 0 0 0 0 0 0 0 0 0 0 0 0 0
Wind_Speed
7 5 6 8 8 7 9 9 10 9 9 4 4 7 10 12 13 12 10 9 8 7 6 6 6 6 6 6 6 6 7 8 8 7 8 8 8 9 8 9 10 10 10 10
7 6 7 9 9 8 7 8 9 9 5 6 6 8 11 12 13 12 11 10 9 8 7 6 6 6 6 6 6 6 7 7 7 8 8 8 8 8 9 10 10 10 11 11
7 5 8 8 3 5 5 4 6 7 4 6 7 9 10 12 12 11 11 10 9 8 7 6 5 5 6 6 6 7 7 7 7 8 8 8 8 9 9 10 10 10 11 11
6 6 8 2 4 3 4 3 5 4 4 4 6 7 8 9 11 11 11 10 9 8 8 6 6 6 6 6 6 7 7 7 7 7 8 8 8 9 8 8 8 9 10 10
6 7 5 2 4 5 5 3 7 5 6 8 10 9 7 7 9 10 11 10 9 9 8 7 7 6 7 7 6 7 7 7 7 7 7 8 8 8 7 7 8 8 9 9
6 7 4 5 7 6 5 2 7 4 6 8 8 5 7 10 10 11 11 10 9 9 9 8 7 6 7 7 7 6 7 7 7 7 7 8 8 8 7 7 8 8 9 9
7 6 1 9 9 7 4 5 6 2 4 7 3 4 12 13 12 12 11 11 10 9 9 8 7 6 6 7 7 7 7 7 7 7 7 8 8 7 7 7 8 9 9 9
4 4 2 11 8 7 7 6 3 2 4 5 7 12 14 14 13 13 12 12 11 9 9 8 7 6 7 7 7 7 7 8 7 7 6 7 7 7 7 7 8 8 8 8
4 4 6 6 6 6 5 3 3 3 5 7 10 13 14 14 13 12 12 11 10 10 10 8 7 7 8 7 6 7 8 8 7 7 6 6 6 7 6 5 5 6 6 7
3 3 5 5 6 5 4 3 3 4 7 9 12 14 14 13 12 12 12 11 10 11 10 8 7 7 7 7 6 7 8 7 7 7 7 6 4 5 5 4 4 5 6 6
4 3 3 5 7 6 4 4 5 6 7 10 14 14 14 13 12 12 11 10 9 9 9 9 8 7 7 7 7 7 7 7 7 7 7 6 7 7 6 8 7 5 5 4
4 5 5 6 5 4 1 4 6 7 9 11 13 14 14 13 12 12 12 11 10 10 10 9 8 8 7 6 7 7 7 6 5 6 5 6 7 8 12 10 9 10 10 8
5 6 5 5 3 1 3 5 7 8 10 12 12 13 14 13 12 12 12 12 11 10 10 9 8 8 7 6 6 7 7 6 5 5 6 5 6 6 7 7 7 8 7 8
4 4 3 1 1 3 5 7 9 10 11 12 12 13 13 13 13 13 12 12 11 10 9 9 8 8 7 7 7 7 7 6 5 5 5 5 5 5 6 6 7 6 5 5
3 3 2 1 4 6 8 9 11 11 12 13 12 13 13 14 13 13 12 12 11 10 9 9 9 8 7 7 7 7 6 5 5 5 5 5 5 5 5 5 5 5 6 6
3 1 3 5 7 8 10 11 11 12 13 13 13 13 13 13 13 12 12 12 11 10 10 9 8 8 8 8 8 6 6 5 3 4 5 5 4 4 4 4 5 4 4 4
4 3 4 6 8 9 10 10 11 12 13 13 13 14 14 13 13 12 12 11 10 9 9 8 9 9 8 7 6 6 7 7 5 4 5 4 4 4 4 4 4 4 4 5
5 5 5 7 9 9 10 11 12 13 13 14 14 14 14 14 13 12 11 11 10 10 9 9 8 8 8 7 5 5 6 6 6 5 5 4 4 4 4 4 4 3 4 6
3 4 6 8 9 9 10 11 12 13 13 14 14 14 13 13 12 12 11 11 11 11 10 9 7 7 8 6 4 5 6 6 5 5 5 5 4 4 3 3 3 3 3 3
2 4 6 8 10 10 11 12 13 13 13 14 14 13 13 12 12 12 12 10 8 8 10 10 10 8 8 7 5 5 6 5 5 5 5 5 4 4 3 3 3 2 2 1
3 5 7 9 10 10 11 13 13 13 14 14 14 13 13 12 12 11 11 9 9 10 11 9 8 8 7 7 7 5 6 5 5 4 4 4 4 4 3 3 3 2 2 2
2 4 7 9 10 10 11 12 13 14 14 13 13 13 13 13 12 11 10 8 10 9 9 10 9 7 7 6 7 6 6 6 5 4 4 4 4 4 3 3 3 3 2 2
2 4 6 8 10 10 11 11 13 13 13 13 13 13 13 11 10 10 9 8 10 11 9 8 9 11 8 8 6 6 6 6 5 5 5 5 5 4 4 4 3 3 3 3
2 4 6 8 9 11 11 12 12 11 12 12 12 13 12 10 9 9 8 10 10 11 9 9 13 12 10 8 7 6 6 6 6 5 5 5 4 5 4 4 4 4 4 4
2 4 6 8 9 9 11 11 12 12 13 10 12 13 11 9 9 9 9 12 13 12 10 11 13 12 11 9 8 7 7 6 4 4 5 4 5 5 5 5 5 5 5 5
2 4 5 7 6 7 8 10 10 10 10 10 10 11 10 9 10 10 9 12 16 12 10 11 12 12 12 10 9 8 7 7 7 7 6 6 6 6 5 5 6 6 5 6
3 3 4 5 6 7 8 9 9 10 11 11 11 11 11 11 10 11 12 11 13 12 11 10 11 12 12 11 10 9 8 7 7 7 7 7 6 6 6 7 7 6 6 7
Wind_Direction
278 281 268 269 271 264 257 271 283 302 309 346 149 160 154 149 149 151 152 150 142 132 125 116 105 94 84 80 77 77 78 75 72 73 74 74 73 72 69 67 69 68 67 65
263 255 261 266 267 266 266 273 281 290 313 64 109 134 144 151 155 158 158 152 145 140 133 123 114 106 99 93 91 89 84 83 82 81 78 76 76 77 75 72 69 67 66 65
262 264 263 246 272 283 276 294 301 313 25 113 133 145 154 158 162 161 158 154 148 144 137 127 121 115 110 103 99 95 90 86 84 83 82 82 83 81 77 76 75 73 71 71
270 266 249 56 41 339 309 1 8 26 79 116 125 130 142 156 161 157 158 154 150 147 141 135 127 119 115 112 106 99 93 90 90 89 89 88 87 84 80 78 77 77 77 78
260 257 254 137 42 349 315 66 45 60 96 107 116 123 134 149 152 154 153 148 144 144 140 136 129 127 122 113 106 101 96 93 92 92 95 96 93 91 88 86 84 83 80 80
252 261 265 53 15 337 279 137 52 68 122 140 164 179 142 147 145 141 140 140 141 141 139 135 131 134 126 116 109 101 97 93 92 92 93 95 97 97 95 92 89 86 79 77
249 255 49 29 346 306 287 30 20 55 141 167 191 60 120 137 139 138 137 137 140 141 139 136 136 134 123 115 105 102 101 100 95 93 94 95 97 98 102 99 93 91 89 83
258 258 65 19 3 13 9 358 20 81 133 131 102 112 126 134 136 137 138 141 144 141 136 134 137 135 124 111 108 110 109 106 102 100 97 97 99 101 102 105 105 102 96 91
335 16 42 27 16 7 351 2 50 98 121 124 128 132 134 136 137 139 142 144 147 140 133 133 138 133 121 118 121 119 114 108 103 99 94 100 107 110 110 109 106 109 107 101
309 31 26 33 21 20 22 39 75 112 130 134 136 138 138 138 140 142 144 148 149 142 137 136 136 127 120 121 121 118 114 113 112 109 107 101 96 94 94 92 93 100 97 99
296 346 0 35 20 17 40 86 109 118 127 134 139 141 141 142 144 146 147 148 146 142 140 138 136 131 129 127 126 121 117 115 115 110 104 97 77 53 58 58 41 49 72 89
343 6 341 347 354 356 70 121 126 127 126 134 141 142 142 141 142 144 145 145 146 144 142 138 137 132 129 130 131 129 127 127 124 120 115 113 110 96 57 61 64 56 42 38
310 325 328 324 337 58 128 127 131 134 135 138 140 142 142 142 145 146 146 147 148 145 142 139 138 134 133 134 133 130 128 128 127 123 124 120 119 122 119 100 80 72 60 53
284 284 286 317 86 128 129 126 128 129 133 136 140 142 143 144 146 147 147 147 146 143 142 141 136 131 133 136 136 133 130 128 130 127 130 129 129 131 130 131 131 124 108 92
284 281 275 140 138 142 136 135 135 135 135 137 142 145 147 148 148 146 145 146 144 144 145 144 136 132 137 137 136 140 137 131 128 126 131 128 130 126 120 118 118 122 131 137
301 264 161 153 156 154 152 151 146 144 144 144 147 149 149 148 146 146 149 151 152 151 148 144 137 137 140 136 136 135 118 100 135 140 136 138 137 131 128 128 126 128 133 126
252 218 179 166 163 163 162 159 153 151 151 151 150 149 149 149 150 152 154 155 154 149 149 146 141 143 143 143 150 146 137 138 172 168 143 138 137 132 133 136 132 135 116 81
246 228 199 181 173 166 161 159 157 156 155 152 151 154 155 157 157 155 154 153 152 151 150 146 144 148 147 149 152 145 143 151 160 141 137 137 137 144 145 140 137 138 134 141
222 200 188 177 170 165 160 160 159 156 154 156 158 159 160 160 157 157 158 161 160 156 154 146 144 161 150 142 157 153 149 150 147 144 142 141 181 161 151 152 150 148 146 149
149 163 167 166 166 165 161 159 157 156 160 162 162 161 162 161 161 162 166 170 170 158 154 155 169 168 159 159 211 169 156 160 158 157 164 173 170 162 167 167 165 164 170 174
124 147 161 165 163 163 160 159 160 161 164 167 167 167 164 163 166 168 174 172 164 159 156 160 179 172 172 162 210 188 168 169 168 169 174 176 174 174 172 175 180 187 193 198
138 151 160 159 159 159 160 163 165 164 165 170 172 169 166 168 172 176 182 173 160 157 173 177 181 160 152 177 197 188 174 172 176 176 181 186 187 189 188 193 201 202 207 211
155 159 163 164 163 160 162 167 168 167 170 174 174 174 174 175 177 180 177 170 164 172 194 177 145 139 163 208 203 191 180 182 190 188 189 195 196 198 200 206 213 216 219 225
166 168 167 166 163 163 168 171 169 171 174 176 176 177 177 177 181 186 170 158 158 170 192 142 143 161 200 217 201 193 183 188 196 200 198 202 207 208 208 215 222 224 224 232
186 177 171 171 174 174 172 170 170 174 176 177 176 178 183 185 182 177 169 165 164 182 184 155 165 181 209 214 203 201 199 196 200 211 205 212 220 217 215 219 225 231 233 236
203 196 185 191 189 182 175 175 178 179 180 178 177 179 182 182 183 174 174 176 176 195 198 173 179 195 214 213 207 208 208 190 195 217 225 225 228 230 230 232 234 239 240 240
209 191 189 194 194 195 189 186 186 184 185 184 180 180 182 182 182 181 181 181 179 191 201 193 189 196 208 211 208 207 212 214 214 217 221 226 232 235 235 238 242 241 240 239